Regional Weather Roundup
Issued by NWS Green Bay, WI

Home | Current Version | Previous Version | Graphics & Text | Print | Product List | Glossary Off
Versions: 1 2 3 4 5 6 7 8 9 10 11 12 13 14 15 16 17 18 19 20 21 22 23 24 25 26 27 28 29 30 31 32 33 34 35 36 37 38 39 40 41 42 43 44 45 46 47 48 49 50

169
ASUS43 KGRB 290211
RWRGRB

NORTH-CENTRAL AND NORTHEAST WISCONSIN REGIONAL WEATHER ROUNDUP
NATIONAL WEATHER SERVICE GREEN BAY WI
900 PM CDT THU APR 28 2016

WIZ005-009-010>012-018-019-290300-
NORTH CENTRAL WISCONSIN

CITY           SKY/WX    TMP DP  RH WIND       PRES   REMARKS
IRONWOOD       CLOUDY    37  28  70 CALM      30.08R
MANITOWISH WTR PTCLDY    43  29  56 N5        30.06R
ARBOR VITAE    PTCLDY    49  28  42 E5        30.06R
EAGLE RIVER    CLOUDY    47  25  42 NE6       30.05R
LAND O LAKES   CLOUDY    44  26  48 NE7       30.07R
RHINELANDER    CLOUDY    47  22  37 S5        30.05R
PHILLIPS       CLOUDY    46  31  55 N8        30.05R
ANTIGO         DRIZZLE   38  33  80 E9        30.08R
TOMAHAWK       CLOUDY    43  31  62 CALM      30.06R
MERRILL        CLOUDY    43  34  70 S6        30.08R
$$

WIZ013-073-290300-
NORTHEAST WISCONSIN

CITY           SKY/WX    TMP DP  RH WIND       PRES   REMARKS
IRON MOUNTAIN  CLOUDY    44  26  49 N5        30.08R
MARINETTE      CLOUDY    43  28  56 N5        30.08R
OCONTO         CLOUDY    42  33  69 CALM      30.08R
$$

WIZ017-030-035>037-045-290300-
CENTRAL WISCONSIN

CITY           SKY/WX    TMP DP  RH WIND       PRES   REMARKS
MEDFORD        DRIZZLE   39  37  92 SE9       30.06R
WAUSAU         CLOUDY    39  35  86 E5        30.07R
MOSINEE        CLOUDY    37  36  93 E8        30.09R
MARSHFIELD     LGT RAIN  40  36  86 E7        30.07R FOG
WISC RAPIDS    CLOUDY    39  32  76 NE12      30.09R
STEVENS POINT  LGT RAIN  35  33  92 NE10      30.09R
WAUPACA        CLOUDY    42  34  72 N7        30.07R
SHAWANO        DRIZZLE   40  35  82 NE9       30.09S
CLINTONVILLE   CLOUDY    39  32  75 N9        30.08R
WAUTOMA        LGT RAIN  42  34  73 E6        30.07R
$$

WIZ038-039-048-051-290300-
FOX VALLEY

CITY           SKY/WX    TMP DP  RH WIND       PRES   REMARKS
NWS GREEN BAY  CLOUDY    43  34  70 N6        30.06S
APPLETON       CLOUDY    43  28  56 NE6       30.05R
OSHKOSH        CLOUDY    42  33  70 NE7       30.05R
FOND DU LAC    CLOUDY    41  38  89 E6        30.05R
$$

WIZ022-050-052-290300-
EAST CENTRAL WISCONSIN

CITY           SKY/WX    TMP DP  RH WIND       PRES   REMARKS
EPHRAIM        CLOUDY    41  30  65 E5        30.06S
STURGEON BAY   CLOUDY    43  28  56 NE6       30.09R
MANITOWOC      CLOUDY    41  35  79 N8G17     30.05F
SHEBOYGAN      CLOUDY    41  35  79 N5        30.04R
$$

LMZ563-521-522-541>543-290300-
LAKESHORE

STATION/POSITION TIME  TEMP    WIND        PRES    VSBY  WAVE
                       AIR SEA DIR/SP/G                  HT/PER
                 (UTC) (F)     (DEG/KT/KT) (MB)    (MI)  (FT/S)
SHEBOYGAN LKSHOR 0200   41      20/ 15/ 17 1018.2R
KEWAUNEE LKSHORE 0100   41                 1016.8S
ALGOMA MARINA    0115           60/ 11/ 15   N/A
NORTHPORT PIER   0100   42      70/  6/  9 1018.3R
N MID LAKE BUOY  0050   40 38   60/ 12/ 12 1017.8          1/ 3
CHAMBERS ISLAND  0100   42      40/  4/  6 1018.6R
MENOMINEE LKSHOR 0100   42                 1017.2R
$$




USA.gov is the U.S. government's official web portal to all federal, state and local government web resources and services.